Regional Weather Roundup
Issued by NWS Little Rock, AR

Home | Current Version | Previous Version | Graphics & Text | Print | Product List | Glossary On
Versions: 1 2 3 4 5 6 7 8 9 10 11 12 13 14 15 16 17 18 19 20 21 22 23 24 25 26 27 28 29 30 31 32 33 34 35 36 37 38 39 40 41 42 43 44 45 46 47 48 49 50
000
ASUS44 KLZK 190905
RWRLZK

WEATHER ROUNDUP FOR ARKANSAS
NATIONAL WEATHER SERVICE LITTLE ROCK AR
400 AM CDT FRI SEP 19 2014

NOTE: "FAIR" INDICATES FEW OR NO CLOUDS BELOW 12,000 FEET WITH NO
SIGNIFICANT WEATHER AND/OR OBSTRUCTIONS TO VISIBILITY.

ARZ001-003-010-029-191000-
NORTHWEST ARKANSAS

CITY           SKY/WX    TMP DP  RH WIND       PRES   REMARKS
FAYETTEVILLE   PTCLDY    63  63 100 CALM      30.01F FOG
FORT SMITH     CLOUDY    69  64  84 E9        29.98S
HARRISON       PTCLDY    62  62 100 E3        30.04F FOG
BENTONVILLE    CLOUDY    64  61  88 SE3       30.02F
ROGERS         MOCLDY    65  61  87 E7        30.03F
SILOAM SPGS    PTCLDY    63  57  82 E5        30.02S
HIGHFILL       CLOUDY    64  62  93 E5        30.01F
$$

ARZ004-005-016-191000-
NORTH CENTRAL ARKANSAS

CITY           SKY/WX    TMP DP  RH WIND       PRES   REMARKS
BATESVILLE     CLOUDY    64  63  94 NW3       30.01F
FLIPPIN        CLOUDY    63  59  88 NE3       30.03F
MTN HOME       CLOUDY    62  61  96 CALM      30.02F FOG
$$

ARZ040-041-191000-
WEST CENTRAL ARKANSAS

CITY           SKY/WX    TMP DP  RH WIND       PRES   REMARKS
MENA           CLOUDY    72  70  94 CALM      29.98F
MOUNT IDA      CLOUDY    70  66  87 CALM      29.96F
$$

ARZ009-017-025-026-028-191000-
NORTHEAST ARKANSAS

CITY           SKY/WX    TMP DP  RH WIND       PRES   REMARKS
CORNING          N/A     61  61 100 NE7       30.02S FOG
JONESBORO      CLOUDY    66  62  87 NE6       30.00S
NEWPORT        CLOUDY    66  64  93 N5        30.01S
WALNUT RIDGE   MOCLDY    63  59  88 N6        30.00F
BLYTHEVILLE    MOCLDY    61  60  97 NE3       30.00F
$$

ARZ022-023-033-042-044-191000-
CENTRAL ARKANSAS

CITY           SKY/WX    TMP DP  RH WIND       PRES   REMARKS
LITTLE ROCK    PTCLDY    67  62  84 NE3       29.98F
N LITTLE ROCK    N/A     65  64  97 NE7       29.98F
JACKSONVILLE   CLEAR     64  62  93 CALM      29.98F
SEARCY         MOCLDY    68  63  84 N5        29.99F
HOT SPRINGS    MOCLDY    68  64  87 E6        29.97F
RUSSELLVILLE   CLOUDY    69  63  81 N3        29.99F
CLINTON        CLOUDY    66  64  94 CALM      30.01F
$$

ARZ036-191000-
EAST ARKANSAS

CITY           SKY/WX    TMP DP  RH WIND       PRES   REMARKS
WEST MEMPHIS   CLEAR     65  65 100 CALM      29.97F
$$

ARZ050-053-066-070-073-191000-
SOUTHWEST ARKANSAS

CITY           SKY/WX    TMP DP  RH WIND       PRES   REMARKS
ARKADELPHIA    FAIR      69  68  97 CALM      29.96F FOG
CAMDEN         MOCLDY    68  64  88 NE3       29.95S FOG
TEXARKANA      MOCLDY    70  70 100 NE6       29.94S FOG
EL DORADO      CLEAR     69  68  96 N3        29.94F
DE QUEEN       PTCLDY    70  69  97 CALM      29.93F FOG
$$

ARZ056-057-069-191000-
SOUTHEAST ARKANSAS

CITY           SKY/WX    TMP DP  RH WIND       PRES   REMARKS
PINE BLUFF     PTCLDY    65  63  93 CALM      29.98S FOG
STUTTGART      MOCLDY    66  63  88 NE6       29.98S
MONTICELLO     CLOUDY    69  67  93 NE3       29.96S FOG

$$





USA.gov is the U.S. government's official web portal to all federal, state and local government web resources and services.